AAL508 KBOS-KMCO

Flight info

Callsign AAL508
Flight time 2h 35m
Altitude 38000
Route SSOXS7 SSOXS Q167 RIFLE HEADI Q97 SAWED MOXXY Q85 LPERD SNFLD3
Aircraft B77W/H-SDE1E2E3FGHIJ2J3J4J5M1RWXY/LB1D1

Departure

Time 2026-05-04 19:48
Airport Boston Logan International Airport (KBOS)

Arrival

Time 2026-05-04 22:23
Airport Orlando International Airport (KMCO)
Time Latitude Longitude Altitude Speed Heading
2026-05-04 19:23 42.36045 -71.01693 30 ft 0 kts 289°
2026-05-04 19:34 42.36044 -71.01688 30 ft 3 kts 289°
2026-05-04 19:35 42.36034 -71.01654 30 ft 4 kts 291°
2026-05-04 19:35 42.36026 -71.01625 30 ft 4 kts 296°
2026-05-04 19:35 42.36011 -71.01600 30 ft 4 kts 341°
2026-05-04 19:35 42.35986 -71.01600 30 ft 4 kts 22°
2026-05-04 19:36 42.35964 -71.01613 30 ft 1 kts 20°
2026-05-04 19:39 42.35991 -71.01600 30 ft 5 kts 20°
2026-05-04 19:39 42.36026 -71.01582 29 ft 6 kts 20°
2026-05-04 19:39 42.36066 -71.01563 30 ft 6 kts 20°
2026-05-04 19:39 42.36110 -71.01541 30 ft 7 kts 19°
2026-05-04 19:40 42.36175 -71.01511 30 ft 19 kts 19°
2026-05-04 19:40 42.36317 -71.01441 30 ft 21 kts 24°
2026-05-04 19:40 42.36317 -71.01273 30 ft 21 kts 122°
2026-05-04 19:40 42.36247 -71.01096 30 ft 21 kts 100°
2026-05-04 19:41 42.36319 -71.00989 30 ft 16 kts 21°
2026-05-04 19:41 42.36425 -71.00940 30 ft 16 kts 19°
2026-05-04 19:41 42.36495 -71.00906 30 ft 16 kts 20°
2026-05-04 19:41 42.36600 -71.00855 30 ft 16 kts 19°
2026-05-04 19:42 42.36706 -71.00803 30 ft 16 kts 20°
2026-05-04 19:42 42.36811 -71.00752 30 ft 16 kts 19°
2026-05-04 19:42 42.36902 -71.00709 30 ft 16 kts 19°
2026-05-04 19:42 42.37000 -71.00662 30 ft 10 kts 20°
2026-05-04 19:43 42.37004 -71.00661 30 ft 0 kts 21°
2026-05-04 19:43 42.37009 -71.00658 30 ft 1 kts 24°
2026-05-04 19:43 42.37018 -71.00653 30 ft 0 kts 21°
2026-05-04 19:43 42.37019 -71.00652 30 ft 1 kts 21°
2026-05-04 19:44 42.37055 -71.00634 30 ft 15 kts 20°
2026-05-04 19:44 42.37159 -71.00584 30 ft 16 kts 19°
2026-05-04 19:44 42.37263 -71.00534 30 ft 16 kts 19°
2026-05-04 19:44 42.37367 -71.00483 30 ft 16 kts 19°
2026-05-04 19:45 42.37468 -71.00436 30 ft 16 kts 19°
2026-05-04 19:45 42.37572 -71.00386 30 ft 16 kts 19°
2026-05-04 19:45 42.37667 -71.00341 30 ft 10 kts 19°
2026-05-04 19:45 42.37733 -71.00318 30 ft 10 kts
2026-05-04 19:46 42.37765 -71.00343 30 ft 0 kts 304°
2026-05-04 19:46 42.37767 -71.00346 30 ft 2 kts 303°
2026-05-04 19:46 42.37781 -71.00381 30 ft 7 kts 295°
2026-05-04 19:47 42.37788 -71.00461 30 ft 10 kts 242°
2026-05-04 19:47 42.37720 -71.00509 30 ft 11 kts 198°
2026-05-04 19:47 42.37711 -71.00513 30 ft 0 kts 200°
2026-05-04 19:47 42.37692 -71.00522 30 ft 15 kts 199°
2026-05-04 19:48 42.37209 -71.00755 31 ft 134 kts 199°
2026-05-04 19:48 42.36093 -71.01254 720 ft 182 kts 199°
2026-05-04 19:48 42.34850 -71.01762 2226 ft 192 kts 197°
2026-05-04 19:48 42.33489 -71.01571 3360 ft 215 kts 162°
2026-05-04 19:49 42.32378 -71.00091 4109 ft 238 kts 124°
2026-05-04 19:49 42.31666 -70.98033 4845 ft 245 kts 116°
2026-05-04 19:49 42.31295 -70.95713 5548 ft 263 kts 96°
2026-05-04 19:49 42.31415 -70.93097 5944 ft 295 kts 80°
2026-05-04 19:50 42.31833 -70.90330 6825 ft 304 kts 77°
2026-05-04 19:50 42.32274 -70.87530 7949 ft 305 kts 76°
2026-05-04 19:50 42.32695 -70.84709 8992 ft 310 kts 76°
2026-05-04 19:50 42.33095 -70.81873 9998 ft 312 kts 79°
2026-05-04 19:51 42.32969 -70.78890 10735 ft 327 kts 108°
2026-05-04 19:51 42.32030 -70.75994 11077 ft 349 kts 117°
2026-05-04 19:51 42.30918 -70.72907 11333 ft 381 kts 116°
2026-05-04 19:51 42.29539 -70.69761 11565 ft 398 kts 134°
2026-05-04 19:52 42.27353 -70.67449 12447 ft 400 kts 156°
2026-05-04 19:52 42.24806 -70.66167 13466 ft 396 kts 166°
2026-05-04 19:52 42.22143 -70.65035 14338 ft 405 kts 166°
2026-05-04 19:52 42.19447 -70.63839 15293 ft 410 kts 165°
2026-05-04 19:53 42.16722 -70.62602 16284 ft 414 kts 165°
2026-05-04 19:53 42.13926 -70.61835 16950 ft 413 kts 183°
2026-05-04 19:53 42.11098 -70.62406 17755 ft 409 kts 202°
2026-05-04 19:53 42.08400 -70.63679 18468 ft 415 kts 203°
2026-05-04 19:54 42.05641 -70.64950 19244 ft 422 kts 203°
2026-05-04 19:54 42.02844 -70.66203 20085 ft 426 kts 202°
2026-05-04 19:54 42.00009 -70.67456 20889 ft 432 kts 202°
2026-05-04 19:54 41.97174 -70.68704 21662 ft 438 kts 202°
2026-05-04 19:55 41.94254 -70.69984 22415 ft 444 kts 202°
2026-05-04 19:55 41.91290 -70.71282 23151 ft 450 kts 202°
2026-05-04 19:55 41.88338 -70.72574 23801 ft 455 kts 202°
2026-05-04 19:55 41.85308 -70.73898 24444 ft 459 kts 202°
2026-05-04 19:56 41.82308 -70.75360 25077 ft 457 kts 209°
2026-05-04 19:56 41.79466 -70.77315 25685 ft 457 kts 215°
2026-05-04 19:56 41.76724 -70.79502 26317 ft 459 kts 216°
2026-05-04 19:56 41.73993 -70.81730 26974 ft 462 kts 216°
2026-05-04 19:57 41.71214 -70.83938 27544 ft 466 kts 215°
2026-05-04 19:57 41.68382 -70.86114 28083 ft 471 kts 214°
2026-05-04 19:57 41.65551 -70.88241 28586 ft 475 kts 214°
2026-05-04 19:57 41.62642 -70.90407 29017 ft 479 kts 214°
2026-05-04 19:58 41.59714 -70.92588 29458 ft 483 kts 214°
2026-05-04 19:58 41.56893 -70.94972 29898 ft 479 kts 222°
2026-05-04 19:58 41.54391 -70.97873 30380 ft 473 kts 230°
2026-05-04 19:58 41.52200 -71.01105 30943 ft 466 kts 236°
2026-05-04 19:59 41.50364 -71.04616 31484 ft 460 kts 241°
2026-05-04 19:59 41.48640 -71.08156 31950 ft 459 kts 241°
2026-05-04 19:59 41.46894 -71.11730 32411 ft 460 kts 241°
2026-05-04 19:59 41.45139 -71.15289 32922 ft 458 kts 240°
2026-05-04 20:00 41.43375 -71.18832 33424 ft 457 kts 240°
2026-05-04 20:00 41.41609 -71.22352 33921 ft 456 kts 240°
2026-05-04 20:00 41.39846 -71.25858 34323 ft 455 kts 240°
2026-05-04 20:00 41.38081 -71.29366 34737 ft 453 kts 239°
2026-05-04 20:01 41.36349 -71.32804 35145 ft 451 kts 239°
2026-05-04 20:01 41.34600 -71.36268 35547 ft 450 kts 239°
2026-05-04 20:01 41.32848 -71.39729 35940 ft 449 kts 239°
2026-05-04 20:01 41.31103 -71.43176 36317 ft 447 kts 239°
2026-05-04 20:02 41.29364 -71.46604 36694 ft 446 kts 239°
2026-05-04 20:02 41.27626 -71.50028 37067 ft 445 kts 239°
2026-05-04 20:02 41.25894 -71.53441 37431 ft 444 kts 238°
2026-05-04 20:02 41.24189 -71.56798 37779 ft 443 kts 238°
2026-05-04 20:03 41.22466 -71.60184 38008 ft 445 kts 238°
2026-05-04 20:03 41.18969 -71.67049 38114 ft 450 kts 238°
2026-05-04 20:04 41.15474 -71.73892 38111 ft 445 kts 238°
2026-05-04 20:04 41.12018 -71.80652 38112 ft 440 kts 238°
2026-05-04 20:05 41.08593 -71.87360 38114 ft 438 kts 238°
2026-05-04 20:05 41.05175 -71.94036 38115 ft 438 kts 238°
2026-05-04 20:06 41.02116 -72.00944 38124 ft 438 kts 247°
2026-05-04 20:06 40.99578 -72.08308 38117 ft 440 kts 247°
2026-05-04 20:07 40.96988 -72.15703 38127 ft 443 kts 247°
2026-05-04 20:07 40.94371 -72.23103 38121 ft 445 kts 247°
2026-05-04 20:08 40.91340 -72.30201 38127 ft 449 kts 238°
2026-05-04 20:08 40.87422 -72.36668 38118 ft 454 kts 229°
2026-05-04 20:09 40.82907 -72.42537 38121 ft 455 kts 228°
2026-05-04 20:09 40.78283 -72.48247 38130 ft 456 kts 223°
2026-05-04 20:10 40.73355 -72.53502 38146 ft 454 kts 223°
2026-05-04 20:10 40.68608 -72.58945 38153 ft 449 kts 229°
2026-05-04 20:11 40.64573 -72.65184 38142 ft 446 kts 234°
2026-05-04 20:11 40.60653 -72.71517 38147 ft 446 kts 234°
2026-05-04 20:12 40.56704 -72.77841 38144 ft 447 kts 233°
2026-05-04 20:12 40.52766 -72.84115 38146 ft 448 kts 233°
2026-05-04 20:13 40.48791 -72.90434 38118 ft 449 kts 233°
2026-05-04 20:13 40.44804 -72.96751 38141 ft 448 kts 233°
2026-05-04 20:14 40.40821 -73.03056 38134 ft 448 kts 233°
2026-05-04 20:14 40.38826 -73.06206 38025 ft 447 kts 233°
2026-05-04 20:14 40.36836 -73.09344 37981 ft 448 kts 233°
2026-05-04 20:15 40.32826 -73.15666 37977 ft 453 kts 233°
2026-05-04 20:15 40.28790 -73.22017 37957 ft 454 kts 233°
2026-05-04 20:16 40.24748 -73.28360 37964 ft 453 kts 233°
2026-05-04 20:16 40.20702 -73.34694 37960 ft 453 kts 233°
2026-05-04 20:17 40.16654 -73.41022 37962 ft 453 kts 233°
2026-05-04 20:17 40.12632 -73.47300 37957 ft 452 kts 233°
2026-05-04 20:18 40.08589 -73.53593 37949 ft 451 kts 233°
2026-05-04 20:18 40.04557 -73.59859 37957 ft 450 kts 233°
2026-05-04 20:19 40.00547 -73.66079 37976 ft 449 kts 233°
2026-05-04 20:19 39.96008 -73.71732 37932 ft 457 kts 220°
2026-05-04 20:20 39.90439 -73.75839 37963 ft 465 kts 207°
2026-05-04 20:20 39.84420 -73.78975 37966 ft 466 kts 206°
2026-05-04 20:21 39.78400 -73.82084 37968 ft 466 kts 207°
2026-05-04 20:21 39.69412 -73.86824 37969 ft 465 kts 207°
2026-05-04 20:22 39.63414 -73.89999 37970 ft 465 kts 207°
2026-05-04 20:22 39.57404 -73.93173 37977 ft 465 kts 207°
2026-05-04 20:23 39.51457 -73.96307 37975 ft 464 kts 207°
2026-05-04 20:23 39.45476 -73.99460 37978 ft 463 kts 208°
2026-05-04 20:24 39.39886 -74.03423 37982 ft 455 kts 218°
2026-05-04 20:24 39.34922 -74.08450 37981 ft 451 kts 225°
2026-05-04 20:25 39.30153 -74.13730 37990 ft 452 kts 225°
2026-05-04 20:25 39.25396 -74.18965 37987 ft 452 kts 225°
2026-05-04 20:26 39.20588 -74.24212 37986 ft 452 kts 224°
2026-05-04 20:26 39.15774 -74.29444 37984 ft 452 kts 225°
2026-05-04 20:27 39.10968 -74.34659 37988 ft 451 kts 225°
2026-05-04 20:27 39.06977 -74.38984 37989 ft 450 kts 225°
2026-05-04 20:28 39.02185 -74.44170 37997 ft 450 kts 224°
2026-05-04 20:28 38.97391 -74.49349 37990 ft 449 kts 225°
2026-05-04 20:29 38.92611 -74.54539 37993 ft 448 kts 226°
2026-05-04 20:29 38.88047 -74.59900 37996 ft 447 kts 227°
2026-05-04 20:30 38.83476 -74.65320 37991 ft 448 kts 227°
2026-05-04 20:30 38.78867 -74.70712 37965 ft 448 kts 227°
2026-05-04 20:31 38.74225 -74.76052 37995 ft 449 kts 225°
2026-05-04 20:31 38.69379 -74.81123 37993 ft 450 kts 224°
2026-05-04 20:32 38.64501 -74.86156 37992 ft 450 kts 224°
2026-05-04 20:32 38.59642 -74.91200 37997 ft 450 kts 224°
2026-05-04 20:33 38.54786 -74.96245 37988 ft 449 kts 224°
2026-05-04 20:33 38.50000 -75.01353 37997 ft 447 kts 226°
2026-05-04 20:34 38.45301 -75.06501 38002 ft 450 kts 222°
2026-05-04 20:34 38.40279 -75.11279 37999 ft 451 kts 221°
2026-05-04 20:35 38.35232 -75.16019 37998 ft 450 kts 221°
2026-05-04 20:35 38.30205 -75.20772 38000 ft 449 kts 222°
2026-05-04 20:36 38.25197 -75.25519 37998 ft 448 kts 222°
2026-05-04 20:36 38.20227 -75.30223 37997 ft 447 kts 222°
2026-05-04 20:37 38.15226 -75.34945 37994 ft 448 kts 221°
2026-05-04 20:37 38.10227 -75.39661 37999 ft 447 kts 221°
2026-05-04 20:38 38.05225 -75.44369 37991 ft 448 kts 221°
2026-05-04 20:38 38.00099 -75.48907 38003 ft 450 kts 219°
2026-05-04 20:39 37.94902 -75.53346 38004 ft 449 kts 219°
2026-05-04 20:39 37.89732 -75.57807 38009 ft 449 kts 219°
2026-05-04 20:40 37.84576 -75.62268 38008 ft 449 kts 219°
2026-05-04 20:40 37.79265 -75.66388 38002 ft 451 kts 216°
2026-05-04 20:41 37.73865 -75.70423 37990 ft 449 kts 216°
2026-05-04 20:41 37.68496 -75.74451 37994 ft 447 kts 216°
2026-05-04 20:42 37.63156 -75.78470 37989 ft 446 kts 216°
2026-05-04 20:42 37.57829 -75.82476 37994 ft 445 kts 216°
2026-05-04 20:43 37.52612 -75.86559 38005 ft 441 kts 221°
2026-05-04 20:43 37.47829 -75.91354 38007 ft 439 kts 224°
2026-05-04 20:44 37.43067 -75.96202 37985 ft 440 kts 224°
2026-05-04 20:44 37.38292 -76.01031 37987 ft 441 kts 224°
2026-05-04 20:45 37.33494 -76.05854 37997 ft 440 kts 224°
2026-05-04 20:45 37.28714 -76.10648 37985 ft 439 kts 224°
2026-05-04 20:46 37.23957 -76.15416 37992 ft 437 kts 224°
2026-05-04 20:46 37.19206 -76.20168 37981 ft 436 kts 224°
2026-05-04 20:47 37.14497 -76.24870 37937 ft 435 kts 224°
2026-05-04 20:47 37.09769 -76.29583 37965 ft 434 kts 224°
2026-05-04 20:48 37.05057 -76.34271 37968 ft 432 kts 224°
2026-05-04 20:48 37.00349 -76.38950 37970 ft 431 kts 224°
2026-05-04 20:49 36.95636 -76.43626 38014 ft 431 kts 224°
2026-05-04 20:49 36.90936 -76.48284 38000 ft 431 kts 224°
2026-05-04 20:50 36.86229 -76.52941 37995 ft 432 kts 224°
2026-05-04 20:50 36.81513 -76.57597 38006 ft 433 kts 224°
2026-05-04 20:51 36.76803 -76.62240 38012 ft 435 kts 224°
2026-05-04 20:51 36.72045 -76.66921 37984 ft 436 kts 224°
2026-05-04 20:52 36.67282 -76.71603 38006 ft 436 kts 224°
2026-05-04 20:52 36.62514 -76.76281 38008 ft 436 kts 224°
2026-05-04 20:53 36.57772 -76.80924 38008 ft 436 kts 224°
2026-05-04 20:53 36.52997 -76.85591 38008 ft 436 kts 224°
2026-05-04 20:54 36.48214 -76.90259 38007 ft 435 kts 224°
2026-05-04 20:54 36.43450 -76.94901 38006 ft 435 kts 224°
2026-05-04 20:55 36.38689 -76.99535 38012 ft 435 kts 224°
2026-05-04 20:55 36.33930 -77.04158 38011 ft 434 kts 224°
2026-05-04 20:56 36.29165 -77.08782 38011 ft 434 kts 224°
2026-05-04 20:56 36.24439 -77.13360 38002 ft 434 kts 223°
2026-05-04 20:57 36.19683 -77.17958 38010 ft 433 kts 223°
2026-05-04 20:57 36.14926 -77.22551 38010 ft 434 kts 223°
2026-05-04 20:58 36.10162 -77.27145 38012 ft 434 kts 223°
2026-05-04 20:58 36.05385 -77.31744 38010 ft 434 kts 223°
2026-05-04 20:59 36.00621 -77.36342 38018 ft 434 kts 223°
2026-05-04 20:59 35.95870 -77.40949 38020 ft 434 kts 223°
2026-05-04 21:00 35.91155 -77.45514 38020 ft 434 kts 223°
2026-05-04 21:00 35.86398 -77.50111 38018 ft 434 kts 223°
2026-05-04 21:01 35.81639 -77.54700 38021 ft 434 kts 223°
2026-05-04 21:01 35.76874 -77.59289 38030 ft 434 kts 223°
2026-05-04 21:02 35.72142 -77.63838 38027 ft 434 kts 223°
2026-05-04 21:02 35.67376 -77.68414 38030 ft 434 kts 223°
2026-05-04 21:03 35.62613 -77.72984 38029 ft 435 kts 223°
2026-05-04 21:03 35.57840 -77.77549 38034 ft 434 kts 223°
2026-05-04 21:04 35.53069 -77.82105 38028 ft 434 kts 223°
2026-05-04 21:04 35.48289 -77.86663 38030 ft 435 kts 223°
2026-05-04 21:05 35.43537 -77.91191 38029 ft 436 kts 223°
2026-05-04 21:05 35.38732 -77.95762 38060 ft 436 kts 223°
2026-05-04 21:06 35.33925 -78.00328 38056 ft 437 kts 223°
2026-05-04 21:06 35.29104 -78.04898 38056 ft 438 kts 223°
2026-05-04 21:07 35.24270 -78.09476 38054 ft 439 kts 223°
2026-05-04 21:07 35.19469 -78.14013 38045 ft 439 kts 223°
2026-05-04 21:08 35.14638 -78.18571 38032 ft 438 kts 223°
2026-05-04 21:08 35.09815 -78.23118 38048 ft 438 kts 223°
2026-05-04 21:09 35.04994 -78.27655 38049 ft 438 kts 223°
2026-05-04 21:09 35.00159 -78.32195 38066 ft 438 kts 223°
2026-05-04 21:10 34.95358 -78.36695 38055 ft 438 kts 223°
2026-05-04 21:10 34.90530 -78.41207 38048 ft 437 kts 223°
2026-05-04 21:11 34.85695 -78.45718 38050 ft 438 kts 223°
2026-05-04 21:11 34.80859 -78.50225 38051 ft 438 kts 223°
2026-05-04 21:12 34.76017 -78.54730 38048 ft 438 kts 223°
2026-05-04 21:12 34.71171 -78.59236 38055 ft 438 kts 223°
2026-05-04 21:13 34.67145 -78.62976 38053 ft 438 kts 222°
2026-05-04 21:13 34.61512 -78.68193 38065 ft 438 kts 222°
2026-05-04 21:14 34.56661 -78.72681 38057 ft 438 kts 222°
2026-05-04 21:14 34.52627 -78.76413 38048 ft 439 kts 222°
2026-05-04 21:15 34.47749 -78.80888 38052 ft 440 kts 222°
2026-05-04 21:15 34.42843 -78.85319 38065 ft 440 kts 221°
2026-05-04 21:16 34.37821 -78.89564 38071 ft 441 kts 220°
2026-05-04 21:16 34.32768 -78.93788 38073 ft 441 kts 220°
2026-05-04 21:17 34.27769 -78.98004 38075 ft 441 kts 220°
2026-05-04 21:17 34.22734 -79.02240 38040 ft 441 kts 220°
2026-05-04 21:18 34.17687 -79.06469 38071 ft 441 kts 220°
2026-05-04 21:18 34.12648 -79.10686 38073 ft 441 kts 220°
2026-05-04 21:19 34.07601 -79.14908 38069 ft 441 kts 220°
2026-05-04 21:19 34.02551 -79.19122 38078 ft 441 kts 220°
2026-05-04 21:20 33.97539 -79.23304 38077 ft 441 kts 220°
2026-05-04 21:20 33.92497 -79.27512 38081 ft 441 kts 220°
2026-05-04 21:21 33.87451 -79.31717 38086 ft 440 kts 220°
2026-05-04 21:21 33.82411 -79.35913 38085 ft 440 kts 220°
2026-05-04 21:22 33.77372 -79.40100 38087 ft 440 kts 220°
2026-05-04 21:22 33.72333 -79.44280 38094 ft 439 kts 220°
2026-05-04 21:23 33.67297 -79.48452 38094 ft 439 kts 220°
2026-05-04 21:23 33.62300 -79.52589 38093 ft 439 kts 220°
2026-05-04 21:24 33.57260 -79.56752 38102 ft 439 kts 220°
2026-05-04 21:24 33.52210 -79.60918 38099 ft 440 kts 220°
2026-05-04 21:25 33.47172 -79.65066 38088 ft 438 kts 220°
2026-05-04 21:25 33.42177 -79.69178 38092 ft 438 kts 220°
2026-05-04 21:26 33.37160 -79.73299 38090 ft 437 kts 220°
2026-05-04 21:26 33.32140 -79.77415 38089 ft 437 kts 220°
2026-05-04 21:27 33.27116 -79.81525 38094 ft 437 kts 220°
2026-05-04 21:27 33.22089 -79.85634 38077 ft 437 kts 220°
2026-05-04 21:28 33.17101 -79.89706 38096 ft 437 kts 220°
2026-05-04 21:28 33.12081 -79.93800 38087 ft 437 kts 220°
2026-05-04 21:29 33.07052 -79.97895 38090 ft 437 kts 220°
2026-05-04 21:29 33.02041 -80.01968 38092 ft 437 kts 220°
2026-05-04 21:30 32.97018 -80.06044 38093 ft 437 kts 220°
2026-05-04 21:30 32.91978 -80.10134 38090 ft 437 kts 220°
2026-05-04 21:31 32.84427 -80.16245 38090 ft 437 kts 220°
2026-05-04 21:32 32.79399 -80.20308 38106 ft 438 kts 220°
2026-05-04 21:32 32.74390 -80.24350 38113 ft 437 kts 220°
2026-05-04 21:33 32.69359 -80.28404 38111 ft 437 kts 220°
2026-05-04 21:33 32.64327 -80.32452 38105 ft 437 kts 220°
2026-05-04 21:34 32.59297 -80.36495 38105 ft 436 kts 220°
2026-05-04 21:34 32.54096 -80.40260 38113 ft 439 kts 217°
2026-05-04 21:35 32.48778 -80.43823 38104 ft 438 kts 216°
2026-05-04 21:35 32.43497 -80.47361 38105 ft 437 kts 217°
2026-05-04 21:36 32.38211 -80.50916 38107 ft 436 kts 217°
2026-05-04 21:36 32.32938 -80.54464 38113 ft 436 kts 217°
2026-05-04 21:37 32.27649 -80.58019 38103 ft 437 kts 217°
2026-05-04 21:37 32.22362 -80.61567 38094 ft 437 kts 217°
2026-05-04 21:38 32.17099 -80.65098 38102 ft 437 kts 217°
2026-05-04 21:38 32.11804 -80.68645 38091 ft 437 kts 217°
2026-05-04 21:39 32.06499 -80.72190 38091 ft 438 kts 217°
2026-05-04 21:39 32.01229 -80.75707 38088 ft 438 kts 217°
2026-05-04 21:40 31.95935 -80.79235 38071 ft 436 kts 217°
2026-05-04 21:40 31.90655 -80.82752 38076 ft 435 kts 217°
2026-05-04 21:41 31.85383 -80.86259 38081 ft 434 kts 217°
2026-05-04 21:41 31.80152 -80.89731 38080 ft 434 kts 217°
2026-05-04 21:42 31.74892 -80.93218 38026 ft 434 kts 217°
2026-05-04 21:42 31.69625 -80.96706 38071 ft 434 kts 217°
2026-05-04 21:43 31.64350 -81.00199 38089 ft 436 kts 217°
2026-05-04 21:43 31.59052 -81.03699 38083 ft 437 kts 217°
2026-05-04 21:44 31.53680 -81.07081 38100 ft 440 kts 215°
2026-05-04 21:44 31.48262 -81.10353 38044 ft 441 kts 215°
2026-05-04 21:45 31.42826 -81.13664 38080 ft 439 kts 215°
2026-05-04 21:45 31.37401 -81.16982 38087 ft 439 kts 215°
2026-05-04 21:46 31.31958 -81.20218 38091 ft 440 kts 214°
2026-05-04 21:46 31.26497 -81.23443 38091 ft 439 kts 214°
2026-05-04 21:47 31.20960 -81.26514 38038 ft 446 kts 207°
2026-05-04 21:47 31.14819 -81.28176 38077 ft 460 kts 196°
2026-05-04 21:48 31.08351 -81.28411 38091 ft 471 kts 188°
2026-05-04 21:48 31.01774 -81.28298 38096 ft 473 kts 188°
2026-05-04 21:49 30.95183 -81.28217 38094 ft 473 kts 188°
2026-05-04 21:49 30.88594 -81.28189 37290 ft 483 kts 188°
2026-05-04 21:49 30.85236 -81.28187 36624 ft 481 kts 188°
2026-05-04 21:50 30.81892 -81.28176 35881 ft 479 kts 188°
2026-05-04 21:50 30.78561 -81.28163 35066 ft 479 kts 188°
2026-05-04 21:50 30.75260 -81.28151 34230 ft 480 kts 188°
2026-05-04 21:50 30.71917 -81.28141 33229 ft 482 kts 188°
2026-05-04 21:51 30.68555 -81.28129 32257 ft 482 kts 188°
2026-05-04 21:51 30.65189 -81.28118 31236 ft 484 kts 187°
2026-05-04 21:51 30.61812 -81.28107 30361 ft 484 kts 187°
2026-05-04 21:51 30.58459 -81.28046 29914 ft 477 kts 185°
2026-05-04 21:52 30.55155 -81.27844 29658 ft 477 kts 184°
2026-05-04 21:52 30.51814 -81.27578 29395 ft 485 kts 183°
2026-05-04 21:52 30.48429 -81.27288 29117 ft 488 kts 183°
2026-05-04 21:52 30.45047 -81.26997 28842 ft 485 kts 183°
2026-05-04 21:53 30.41693 -81.26717 28593 ft 482 kts 183°
2026-05-04 21:53 30.38417 -81.26455 28336 ft 479 kts 183°
2026-05-04 21:53 30.35091 -81.26199 28076 ft 477 kts 183°
2026-05-04 21:53 30.31789 -81.25951 27823 ft 474 kts 183°
2026-05-04 21:54 30.28500 -81.25707 27572 ft 472 kts 183°
2026-05-04 21:54 30.25222 -81.25464 27313 ft 470 kts 183°
2026-05-04 21:54 30.21969 -81.25223 27073 ft 469 kts 183°
2026-05-04 21:54 30.18724 -81.24981 26829 ft 467 kts 183°
2026-05-04 21:55 30.15487 -81.24741 26582 ft 465 kts 183°
2026-05-04 21:55 30.12247 -81.24501 26329 ft 464 kts 182°
2026-05-04 21:55 30.09025 -81.24261 26058 ft 463 kts 182°
2026-05-04 21:55 30.05820 -81.24023 25824 ft 461 kts 182°
2026-05-04 21:56 30.02620 -81.23785 25589 ft 460 kts 182°
2026-05-04 21:56 29.99473 -81.23551 25350 ft 459 kts 182°
2026-05-04 21:56 29.96287 -81.23314 25104 ft 457 kts 182°
2026-05-04 21:56 29.93114 -81.23077 24862 ft 456 kts 182°
2026-05-04 21:57 29.89956 -81.22843 24619 ft 455 kts 182°
2026-05-04 21:57 29.86824 -81.22612 24378 ft 453 kts 182°
2026-05-04 21:57 29.83674 -81.22379 24136 ft 452 kts 182°
2026-05-04 21:57 29.80531 -81.22146 23880 ft 450 kts 182°
2026-05-04 21:58 29.77405 -81.21914 23635 ft 448 kts 182°
2026-05-04 21:58 29.74305 -81.21685 23360 ft 446 kts 182°
2026-05-04 21:58 29.71208 -81.21456 23103 ft 444 kts 182°
2026-05-04 21:58 29.68115 -81.21215 22713 ft 445 kts 181°
2026-05-04 21:59 29.65027 -81.20953 22328 ft 445 kts 181°
2026-05-04 21:59 29.62058 -81.20692 21940 ft 440 kts 181°
2026-05-04 21:59 29.59020 -81.20422 21558 ft 434 kts 180°
2026-05-04 21:59 29.56022 -81.20159 21187 ft 429 kts 180°
2026-05-04 22:00 29.53051 -81.19902 20790 ft 427 kts 180°
2026-05-04 22:00 29.50138 -81.19652 20442 ft 424 kts 180°
2026-05-04 22:00 29.47200 -81.19401 20093 ft 422 kts 180°
2026-05-04 22:00 29.44271 -81.19151 19736 ft 421 kts 180°
2026-05-04 22:01 29.41351 -81.18903 19376 ft 420 kts 180°
2026-05-04 22:01 29.38444 -81.18656 19020 ft 419 kts 180°
2026-05-04 22:01 29.35534 -81.18408 18644 ft 418 kts 179°
2026-05-04 22:01 29.32641 -81.18160 18276 ft 416 kts 179°
2026-05-04 22:02 29.29756 -81.17914 17863 ft 415 kts 179°
2026-05-04 22:02 29.27844 -81.17749 17608 ft 413 kts 179°
2026-05-04 22:02 29.24979 -81.17495 17241 ft 411 kts 179°
2026-05-04 22:02 29.22136 -81.17243 16872 ft 408 kts 179°
2026-05-04 22:03 29.19317 -81.16983 16527 ft 406 kts 176°
2026-05-04 22:03 29.16585 -81.16244 16168 ft 405 kts 162°
2026-05-04 22:03 29.13988 -81.14982 15843 ft 404 kts 159°
2026-05-04 22:03 29.11427 -81.13757 15495 ft 403 kts 160°
2026-05-04 22:04 29.08807 -81.12588 15149 ft 403 kts 161°
2026-05-04 22:04 29.06190 -81.11459 14813 ft 401 kts 162°
2026-05-04 22:04 29.03551 -81.10439 14478 ft 399 kts 163°
2026-05-04 22:04 29.00932 -81.09474 14124 ft 392 kts 164°
2026-05-04 22:05 28.98372 -81.08523 13744 ft 384 kts 165°
2026-05-04 22:05 28.95826 -81.07794 13423 ft 370 kts 174°
2026-05-04 22:05 28.93295 -81.07505 13072 ft 362 kts 178°
2026-05-04 22:05 28.90795 -81.07294 12715 ft 356 kts 177°
2026-05-04 22:06 28.88365 -81.07175 12383 ft 343 kts 187°
2026-05-04 22:06 28.86110 -81.07825 12111 ft 329 kts 204°
2026-05-04 22:06 28.83973 -81.08770 11816 ft 330 kts 204°
2026-05-04 22:06 28.81844 -81.09686 11523 ft 332 kts 203°
2026-05-04 22:07 28.79672 -81.10604 11241 ft 333 kts 203°
2026-05-04 22:07 28.77498 -81.11515 10987 ft 331 kts 202°
2026-05-04 22:07 28.75348 -81.12411 10664 ft 327 kts 202°
2026-05-04 22:07 28.73227 -81.13292 10375 ft 322 kts 202°
2026-05-04 22:08 28.71141 -81.14158 10095 ft 316 kts 202°
2026-05-04 22:08 28.69065 -81.14904 9913 ft 309 kts 197°
2026-05-04 22:08 28.67008 -81.15438 9737 ft 300 kts 195°
2026-05-04 22:08 28.64996 -81.15920 9599 ft 290 kts 194°
2026-05-04 22:09 28.63039 -81.16396 9253 ft 289 kts 195°
2026-05-04 22:09 28.61072 -81.16893 8912 ft 286 kts 196°
2026-05-04 22:09 28.59143 -81.17388 8606 ft 283 kts 195°
2026-05-04 22:09 28.57254 -81.17877 8454 ft 273 kts 195°
2026-05-04 22:10 28.55439 -81.18347 8170 ft 269 kts 196°
2026-05-04 22:10 28.53617 -81.18721 7901 ft 264 kts 187°
2026-05-04 22:10 28.51794 -81.18758 7667 ft 260 kts 182°
2026-05-04 22:10 28.49987 -81.18723 7420 ft 259 kts 181°
2026-05-04 22:11 28.48218 -81.18702 7311 ft 251 kts 181°
2026-05-04 22:11 28.46444 -81.18702 7139 ft 256 kts 183°
2026-05-04 22:11 28.44644 -81.18713 6795 ft 260 kts 182°
2026-05-04 22:11 28.42850 -81.18724 6534 ft 256 kts 182°
2026-05-04 22:12 28.41077 -81.18737 6302 ft 250 kts 182°
2026-05-04 22:12 28.39370 -81.18747 6128 ft 242 kts 182°
2026-05-04 22:12 28.37689 -81.18759 5862 ft 241 kts 183°
2026-05-04 22:12 28.36026 -81.18772 5636 ft 239 kts 183°
2026-05-04 22:13 28.34384 -81.18785 5428 ft 238 kts 181°
2026-05-04 22:13 28.32763 -81.18796 5231 ft 230 kts 182°
2026-05-04 22:13 28.31183 -81.18806 4989 ft 224 kts 182°
2026-05-04 22:13 28.29622 -81.18813 4669 ft 224 kts 181°
2026-05-04 22:14 28.28060 -81.18835 4388 ft 224 kts 176°
2026-05-04 22:14 28.26482 -81.18778 4198 ft 228 kts 178°
2026-05-04 22:14 28.24893 -81.18769 4044 ft 224 kts 175°
2026-05-04 22:14 28.23495 -81.18225 4029 ft 214 kts 141°
2026-05-04 22:15 28.22623 -81.16869 4033 ft 219 kts 108°
2026-05-04 22:15 28.22583 -81.15165 4047 ft 220 kts 75°
2026-05-04 22:15 28.23387 -81.13726 4047 ft 219 kts 42°
2026-05-04 22:15 28.24756 -81.12988 4054 ft 221 kts 15°
2026-05-04 22:16 28.26297 -81.12716 4068 ft 225 kts
2026-05-04 22:16 28.27828 -81.12520 4061 ft 217 kts
2026-05-04 22:16 28.29285 -81.12349 4040 ft 202 kts
2026-05-04 22:16 28.30646 -81.12184 4036 ft 193 kts
2026-05-04 22:17 28.31967 -81.12040 4029 ft 190 kts
2026-05-04 22:17 28.33266 -81.11916 4027 ft 189 kts
2026-05-04 22:17 28.34492 -81.12377 4001 ft 193 kts 320°
2026-05-04 22:17 28.35090 -81.13819 4037 ft 212 kts 274°
2026-05-04 22:18 28.34632 -81.15384 4034 ft 215 kts 229°
2026-05-04 22:18 28.33376 -81.16231 3952 ft 211 kts 197°
2026-05-04 22:18 28.32117 -81.17100 3818 ft 219 kts 230°
2026-05-04 22:18 28.31456 -81.18670 3732 ft 222 kts 248°
2026-05-04 22:19 28.30801 -81.20281 3605 ft 226 kts 242°
2026-05-04 22:19 28.30056 -81.21843 3460 ft 223 kts 240°
2026-05-04 22:19 28.29296 -81.23363 3309 ft 220 kts 239°
2026-05-04 22:19 28.28578 -81.24889 3142 ft 221 kts 249°
2026-05-04 22:20 28.28522 -81.26619 3061 ft 223 kts 288°
2026-05-04 22:20 28.29328 -81.28083 2715 ft 218 kts 323°
2026-05-04 22:20 28.30653 -81.28703 2374 ft 203 kts
2026-05-04 22:20 28.31969 -81.28441 2198 ft 187 kts 16°
2026-05-04 22:21 28.33235 -81.28267 2005 ft 174 kts 10°
2026-05-04 22:21 28.34482 -81.28201 1895 ft 182 kts
2026-05-04 22:21 28.35733 -81.28213 1637 ft 177 kts
2026-05-04 22:21 28.36957 -81.28248 1206 ft 173 kts
2026-05-04 22:22 28.38187 -81.28236 967 ft 181 kts
2026-05-04 22:22 28.39425 -81.28209 639 ft 176 kts
2026-05-04 22:22 28.40653 -81.28192 389 ft 176 kts
2026-05-04 22:22 28.41859 -81.28235 174 ft 172 kts
2026-05-04 22:23 28.43011 -81.28245 107 ft 157 kts 359°
2026-05-04 22:23 28.43957 -81.28255 111 ft 114 kts 359°
2026-05-04 22:23 28.44237 -81.28303 109 ft 12 kts 296°
2026-05-04 22:23 28.44239 -81.28413 109 ft 0 kts 219°
2026-05-04 22:24 28.44171 -81.28394 109 ft 20 kts 159°
2026-05-04 22:24 28.44035 -81.28380 113 ft 20 kts 179°
2026-05-04 22:24 28.43957 -81.28377 114 ft 0 kts 178°
2026-05-04 22:24 28.43904 -81.28393 113 ft 16 kts 215°
2026-05-04 22:25 28.43872 -81.28513 112 ft 17 kts 265°
2026-05-04 22:25 28.43874 -81.28647 109 ft 17 kts 273°
2026-05-04 22:25 28.43873 -81.28788 112 ft 18 kts 269°
2026-05-04 22:25 28.43872 -81.28933 109 ft 18 kts 269°
2026-05-04 22:26 28.43871 -81.29079 108 ft 20 kts 269°
2026-05-04 22:26 28.43849 -81.29245 107 ft 22 kts 226°
2026-05-04 22:26 28.43697 -81.29263 107 ft 22 kts 179°
2026-05-04 22:26 28.43563 -81.29293 109 ft 12 kts 233°
2026-05-04 22:27 28.43553 -81.29384 111 ft 12 kts 270°
2026-05-04 22:27 28.43552 -81.29476 110 ft 12 kts 269°
2026-05-04 22:27 28.43551 -81.29583 109 ft 15 kts 270°
2026-05-04 22:27 28.43550 -81.29710 108 ft 17 kts 269°
2026-05-04 22:28 28.43513 -81.29800 109 ft 12 kts 199°
2026-05-04 22:28 28.43428 -81.29804 108 ft 13 kts 180°
2026-05-04 22:28 28.43340 -81.29804 108 ft 13 kts 180°
2026-05-04 22:28 28.43252 -81.29801 108 ft 13 kts 178°
2026-05-04 22:29 28.43163 -81.29800 108 ft 13 kts 181°
2026-05-04 22:29 28.43073 -81.29800 108 ft 13 kts 179°
2026-05-04 22:29 28.42983 -81.29799 108 ft 13 kts 180°
2026-05-04 22:29 28.42911 -81.29851 107 ft 14 kts 236°
2026-05-04 22:30 28.42832 -81.29904 108 ft 14 kts 230°
2026-05-04 22:30 28.42823 -81.29935 108 ft 0 kts 275°
2026-05-04 22:30 28.42826 -81.29945 108 ft 2 kts 287°
2026-05-04 22:30 28.42833 -81.29968 108 ft 4 kts 287°
2026-05-04 22:31 28.42833 -81.29970 108 ft 0 kts 287°
2026-05-04 22:31 28.42834 -81.29973 108 ft 0 kts 287°
2026-05-04 22:31 28.42834 -81.29974 108 ft 0 kts 286°
2026-05-04 22:32 28.42835 -81.29979 108 ft 6 kts 286°
2026-05-04 22:32 28.42833 -81.29971 107 ft 1 kts 286°
2026-05-04 22:32 28.42834 -81.29973 108 ft 0 kts 286°